[Date Prev][Date Next][Thread Prev][Thread Next] - [Date Index][Thread Index][Author Index]

2 Line ISS Keps 6-19



ISS
1 25544U 98067A   02170.13978263  .00030519  00000-0  40607-3 0  5780
2 25544  51.6381  43.1159 0007156 250.2621 248.0396 15.57869877204333


----
Via the sarex mailing list at AMSAT.ORG courtesy of AMSAT-NA.
To unsubscribe, send "unsubscribe sarex" to Majordomo@amsat.org



AMSAT Top AMSAT Home